This demonstration page uses our WeatherBlox Daily Observations layout. Learn more.

Left ArrowRight Arrow

Hourly Observations for November 8, 2021

Temp ( °F °C ) Dew Point ( °F °C ) Humidity (%) Winds ( mph kmh ) Pressure ( in mb ) Visibility ( mi km ) Precip ( " mm )
12:53 am 00:53 Clear 43 6.1 34 1.1 71 71 Calm 30.18 1022 10 16 0.00 0.00
1:53 am 01:53 Clear 41 5 35 1.7 79 79 Calm 30.19 1022 10 16 0.00 0.00
2:53 am 02:53 Clear 40 4.4 34 1.1 79 79 Calm 30.19 1023 10 16 0.00 0.00
3:53 am 03:53 Clear 40 4.4 35 1.7 83 83 Calm 30.20 1023 10 16 0.00 0.00
4:53 am 04:53 Clear 37 2.8 35 1.7 93 93 Calm 30.21 1023 10 16 0.00 0.00
5:53 am 05:53 Clear 37 2.8 34 1.1 89 89 Calm 30.24 1024 10 16 0.00 0.00
6:53 am 06:53 Clear 37 2.8 34 1.1 89 89 Calm 30.25 1025 10 16 0.00 0.00
7:53 am 07:53 Sunny 37 2.8 36 2.2 96 96 Calm 30.28 1026 10 16 0.00 0.00
8:53 am 08:53 Sunny 48 8.9 38 3.3 68 68 Calm 30.30 1026 10 16 0.00 0.00
9:53 am 09:53 Sunny 54 12.2 39 3.9 57 57 Calm 30.31 1026 10 16 0.00 0.00
10:53 am 10:53 Sunny 62 16.7 41 5 46 46 Calm 30.31 1027 10 16 0.00 0.00
11:53 am 11:53 Sunny 67 19.4 31 -0.6 26 26 Calm 30.29 1026 10 16 0.00 0.00
12:53 pm 12:53 Sunny 71 21.7 34 1.1 26 26 Calm 30.27 1025 10 16 0.00 0.00
1:53 pm 13:53 Sunny 73 22.8 34 1.1 24 24 Calm 30.24 1024 10 16 0.00 0.00
2:53 pm 14:53 Sunny 72 22.2 34 1.1 25 25 Calm 30.23 1024 10 16 0.00 0.00
3:53 pm 15:53 Sunny 73 22.8 34 1.1 24 24 VRB 3 6 30.23 1024 10 16 0.00 0.00
4:53 pm 16:53 Sunny 71 21.7 37 2.8 29 29 WNW 3 6 30.24 1024 10 16 0.00 0.00
5:53 pm 17:53 Clear 64 17.8 43 6.1 46 46 Calm 30.24 1024 10 16 0.00 0.00
6:53 pm 18:53 Clear 56 13.3 43 6.1 62 62 Calm 30.26 1025 10 16 0.00 0.00
7:53 pm 19:53 Clear 51 10.6 43 6.1 74 74 Calm 30.27 1025 10 16 0.00 0.00
8:53 pm 20:53 Clear 49 9.4 43 6.1 80 80 Calm 30.27 1025 10 16 0.00 0.00
9:53 pm 21:53 Clear 46 7.8 43 6.1 89 89 Calm 30.28 1026 10 16 0.00 0.00
10:53 pm 22:53 Clear 45 7.2 42 5.6 90 90 Calm 30.29 1026 10 16 0.00 0.00
11:53 pm 23:53 Clear 43 6.1 40 4.4 89 89 Calm 30.28 1025 10 16 0.00 0.00

Powered by AerisWeather